Flight Track Log - Related Links

Times and Time Zones

All times are in EST time to prevent confusion due to time zone crossing. See the SWA738 flight status page for this flight to view local times or setup timezone preferences in your user account.

Time Position Orientation Groundspeed Altitude Reporting Facility
EST Latitude Longitude Course Direction KTS MPH feet Rate Location/Type
Thu 09:53:14 PM 41.8333 -87.7500 90° East 219 252 3,000  Level Chicago TRACON
Thu 09:54:08 PM 41.8333 -87.6667 90° East 245 282 3,400 1,944 Climbing Chicago TRACON
Thu 09:55:36 PM 41.8078 -87.5228 103° East 327 376 7,600 3,280 Climbing Chicago Center
Thu 09:56:38 PM 41.7928 -87.3989 99° East 325 374 11,600 3,317 Climbing Chicago Center
Thu 09:57:39 PM 41.7814 -87.2681 97° East 350 403 14,400 2,705 Climbing Chicago Center
Thu 09:58:00 PM 41.7500 -86.8412 90° East  Level FlightAware Approximate
Thu 09:58:40 PM 41.7675 -87.1200 97° East 398 458 17,100  Level Chicago Center
Thu 09:59:42 PM 41.7628 -86.9586 92° East 434 499 19,800 2,390 Climbing Chicago Center
Thu 10:00:43 PM 41.7653 -86.7819 89° East 470 541 22,000 2,361 Climbing Chicago Center
Thu 10:01:44 PM 41.7672 -86.5958 89° East 497 572 24,600 2,361 Climbing Chicago Center
Thu 10:02:45 PM 41.7678 -86.4069 90° East 507 583 26,800 2,244 Climbing Chicago Center
Thu 10:03:47 PM 41.7600 -86.1731 92° East 524 603 29,200 2,098 Climbing Chicago Center
Thu 10:04:48 PM 41.7475 -85.9728 95° East 537 618 31,100 1,721 Climbing Chicago Center
Thu 10:05:49 PM 41.7344 -85.7672 95° East 548 631 32,700 1,721 Climbing Chicago Center
Thu 10:06:50 PM 41.7206 -85.5611 95° East 552 635 34,600 1,707 Climbing Chicago Center
Thu 10:07:52 PM 41.7086 -85.3747 95° East 551 634 36,200 1,707 Climbing Chicago Center
Thu 10:08:53 PM 41.6931 -85.1442 95° East 546 628 38,100 1,377 Climbing Chicago Center
Thu 10:09:54 PM 41.6789 -84.9442 95° East 542 624 39,000 443 Climbing Chicago Center
Thu 10:10:55 PM 41.6642 -84.7433 96° East 542 624 39,000  Level Chicago Center
Thu 10:11:56 PM 41.6361 -84.5483 101° East 539 620 39,000  Level Chicago Center
Thu 10:12:58 PM 41.5728 -84.3728 116° Southeast 526 605 39,000  Level Chicago Center
Thu 10:13:59 PM 41.5069 -84.1972 117° Southeast 527 606 39,000  Level Chicago Center
Thu 10:15:00 PM 41.4400 -84.0203 117° Southeast 534 615 39,000  Level Chicago Center
Thu 10:16:01 PM 41.3750 -83.8442 116° Southeast 533 613 39,000  Level Chicago Center
Thu 10:17:02 PM 41.3092 -83.6697 117° Southeast 530 610 39,000  Level Chicago Center
Thu 10:17:32 PM 41.2725 -83.5728 117° Southeast 530 610 39,000  Level Cleveland Center
Thu 10:18:33 PM 41.2075 -83.3994 116° Southeast 530 610 39,000  Level Cleveland Center
Thu 10:19:34 PM 41.1431 -83.2261 116° Southeast 530 610 39,000  Level Cleveland Center
Thu 10:20:36 PM 41.0722 -83.0436 117° Southeast 529 609 39,000  Level Cleveland Center
Thu 10:21:37 PM 41.0058 -82.8706 117° Southeast 527 606 39,000  Level Cleveland Center
Thu 10:22:01 PM 40.9731 -82.7831 116° Southeast 527 606 39,000  Level Cleveland Center
Thu 10:23:03 PM 40.9064 -82.6117 117° Southeast 526 605 39,000  Level Cleveland Center
Thu 10:24:02 PM 40.8375 -82.4392 118° Southeast 525 604 39,000  Level Indianapolis Center
Thu 10:26:06 PM 40.7033 -82.0981 117° Southeast 525 604 39,000  Level Cleveland Center
Thu 10:27:08 PM 40.6356 -81.9269 118° Southeast 524 603 39,000  Level Cleveland Center
Thu 10:28:09 PM 40.5678 -81.7564 118° Southeast 524 603 39,000  Level Cleveland Center
Thu 10:29:10 PM 40.4994 -81.5878 118° Southeast 524 603 39,000  Level Cleveland Center
Thu 10:30:11 PM 40.4361 -81.3878 113° Southeast 524 603 39,000  Level Cleveland Center
Thu 10:31:12 PM 40.3783 -81.2119 113° Southeast 525 604 39,000  Level Cleveland Center
Thu 10:32:14 PM 40.3211 -81.0369 113° Southeast 525 604 39,000  Level Cleveland Center
Thu 10:33:15 PM 40.2647 -80.8642 113° Southeast 524 603 39,000  Level Cleveland Center
Thu 10:34:16 PM 40.2075 -80.6933 114° Southeast 523 602 39,000 -344 Level Cleveland Center
Thu 10:35:17 PM 40.1511 -80.5231 113° Southeast 520 598 38,300 -492 Descending Cleveland Center
Thu 10:36:18 PM 40.0944 -80.3558 114° Southeast 513 590 38,000 -146 Descending Cleveland Center
Thu 10:37:20 PM 40.0269 -80.1542 114° Southeast 513 590 38,000 -390 Level Cleveland Center
Thu 10:38:21 PM 39.9708 -79.9875 114° Southeast 512 589 37,200 -1,672 Descending Cleveland Center
Thu 10:39:22 PM 39.9125 -79.8214 115° Southeast 510 587 34,600 -2,410 Descending Cleveland Center
Thu 10:40:23 PM 39.8558 -79.6539 114° Southeast 509 586 32,300 -2,213 Descending Cleveland Center
Thu 10:41:24 PM 39.8000 -79.4914 114° Southeast 499 574 30,100 -2,115 Descending Cleveland Center
Thu 10:42:25 PM 39.7450 -79.3353 115° Southeast 483 556 28,000 -2,016 Descending Cleveland Center
Thu 10:43:26 PM 39.6925 -79.1808 114° Southeast 472 543 26,000 -1,463 Descending Cleveland Center
Thu 10:44:28 PM 39.6467 -79.0319 112° Southeast 452 520 25,000 -683 Descending Cleveland Center
Thu 10:45:29 PM 39.6122 -78.8664 105° East 446 513 24,600 -1,333 Descending Cleveland Center
Thu 10:46:34 PM 39.5739 -78.6903 106° East 441 507 22,200 -2,064 Descending Washington Center
Thu 10:47:34 PM 39.5400 -78.5408 106° East 428 493 20,300 -1,869 Descending Washington Center
Thu 10:48:36 PM 39.5081 -78.3969 106° East 421 484 18,400 -1,916 Descending Washington Center
Thu 10:49:33 PM 39.4758 -78.2558 106° East 416 479 16,500 -1,780 Descending Washington Center
Thu 10:50:34 PM 39.4456 -78.1125 105° East 416 479 14,900 -793 Descending Washington Center
Thu 10:51:34 PM 39.4206 -78.0067 107° East 401 461 14,900  Level Washington Center
Thu 10:52:34 PM 39.3881 -77.8686 107° East 380 437 14,900  Level Washington Center
Thu 10:53:36 PM 39.3967 -77.7347 85° East 363 418 14,900 -650 Level Washington Center
Thu 10:54:34 PM 39.4156 -77.6036 79° East 363 418 13,600 -1,475 Descending Washington Center
Thu 10:55:34 PM 39.4322 -77.4750 80° East 368 423 12,000 -1,289 Descending Washington Center
Thu 10:56:35 PM 39.4467 -77.3519 81° East 368 423 11,000 -496 Descending Washington Center
Thu 10:57:35 PM 39.4608 -77.2311 81° East 348 400 11,000 -600 Level Washington Center
Thu 10:58:35 PM 39.4644 -77.1022 88° East 331 381 9,800 -1,597 Descending Washington Center
Thu 10:59:54 PM 39.3667 -77.0167 146° Southeast 251 289 7,300 -1,986 Descending Potomac TRACON
Thu 11:00:54 PM 39.3167 -76.9833 153° Southeast 247 284 5,200 -1,900 Descending Potomac TRACON
Thu 11:01:54 PM 39.2500 -76.9500 159° South 225 259 3,500 -1,400 Descending Potomac TRACON
Thu 11:02:54 PM 39.2167 -76.8833 123° Southeast 212 244 2,400 -900 Descending Potomac TRACON
Thu 11:03:54 PM 39.2000 -76.8167 108° East 179 206 1,700 -500 Descending Potomac TRACON
Thu 11:04:54 PM 39.1833 -76.7667 113° Southeast 135 155 1,400 -400 Descending Potomac TRACON
Thu 11:05:54 PM 39.1833 -76.7333 90° East 134 154 900 -500 Descending Potomac TRACON
Thu 11:07:00 PM 39.1667 -76.6667 103° East  Level FlightAware Approximate
Thu 11:14:00 PM 39.1754 -76.6683 103° East  Level Estimated
Thu 11:15:00 PM 39.1754 -76.6683 103° East  Level Estimated
Thu 11:16:00 PM 39.1754 -76.6683 103° East  Level Estimated
Thu 11:17:00 PM 39.1754 -76.6683 103° East  Level Estimated
Thu 11:18:00 PM 39.1754 -76.6683 103° East  Level Estimated

Login

Don't have an account? Register now (free) for customized features, flight alerts, and more!